Time,TemperatureF,DewpointF,PressureIn,WindDirection,WindDirectionDegrees,WindSpeedMPH,WindSpeedGustMPH,Humidity,HourlyPrecipIn,Conditions,Clouds,dailyrainin,SoftwareType,DateUTC
2013-02-12 00:12:00,36.3,33.0,29.67,ESE,114,0.0,3.0,86,0.00,,,0.00,weatherlink.com 1.10,2013-02-12 05:12:00,
2013-02-12 00:28:00,37.1,32.0,29.67,WNW,283,0.0,6.0,82,0.00,,,0.00,weatherlink.com 1.10,2013-02-12 05:28:00,
2013-02-12 00:43:00,36.9,32.0,29.67,NNW,345,0.0,2.0,82,0.00,,,0.00,weatherlink.com 1.10,2013-02-12 05:43:00,
2013-02-12 00:59:00,36.7,32.0,29.66,East,95,0.0,1.0,83,0.00,,,0.00,weatherlink.com 1.10,2013-02-12 05:59:00,
2013-02-12 01:15:00,36.5,32.0,29.66,ESE,108,1.0,3.0,83,0.00,,,0.00,weatherlink.com 1.10,2013-02-12 06:15:00,
2013-02-12 01:31:00,36.7,32.0,29.66,ESE,107,0.0,1.0,82,0.00,,,0.00,weatherlink.com 1.10,2013-02-12 06:31:00,
2013-02-12 01:46:00,36.9,31.0,29.67,ESE,105,1.0,1.0,79,0.00,,,0.00,weatherlink.com 1.10,2013-02-12 06:46:00,
2013-02-12 02:02:00,36.8,31.0,29.67,ESE,104,0.0,1.0,80,0.00,,,0.00,weatherlink.com 1.10,2013-02-12 07:02:00,
2013-02-12 02:18:00,36.5,31.0,29.67,ESE,105,0.0,1.0,80,0.00,,,0.00,weatherlink.com 1.10,2013-02-12 07:18:00,
2013-02-12 02:34:00,36.5,31.0,29.67,ESE,103,0.0,2.0,79,0.00,,,0.00,weatherlink.com 1.10,2013-02-12 07:34:00,
2013-02-12 02:50:00,36.4,31.0,29.67,ESE,103,1.0,1.0,79,0.00,,,0.00,weatherlink.com 1.10,2013-02-12 07:50:00,
2013-02-12 03:05:00,36.5,31.0,29.66,ESE,103,0.0,1.0,79,0.00,,,0.00,weatherlink.com 1.10,2013-02-12 08:05:00,
2013-02-12 03:21:00,36.5,30.0,29.66,North,356,0.0,2.0,78,0.00,,,0.00,weatherlink.com 1.10,2013-02-12 08:21:00,
2013-02-12 03:37:00,36.4,31.0,29.66,ENE,68,0.0,1.0,79,0.00,,,0.00,weatherlink.com 1.10,2013-02-12 08:37:00,
2013-02-12 03:52:00,36.1,31.0,29.67,ENE,69,0.0,1.0,80,0.00,,,0.00,weatherlink.com 1.10,2013-02-12 08:52:00,
2013-02-12 04:09:00,36.1,30.0,29.67,ESE,118,0.0,1.0,79,0.00,,,0.00,weatherlink.com 1.10,2013-02-12 09:09:00,
2013-02-12 04:24:00,35.9,31.0,29.67,ENE,62,0.0,4.0,81,0.00,,,0.00,weatherlink.com 1.10,2013-02-12 09:24:00,
2013-02-12 04:40:00,36.1,31.0,29.67,ENE,73,0.0,1.0,80,0.00,,,0.00,weatherlink.com 1.10,2013-02-12 09:40:00,
2013-02-12 04:56:00,36.7,30.0,29.67,WNW,301,1.0,2.0,78,0.00,,,0.00,weatherlink.com 1.10,2013-02-12 09:56:00,
2013-02-12 05:12:00,37.4,30.0,29.68,WNW,286,1.0,4.0,75,0.00,,,0.00,weatherlink.com 1.10,2013-02-12 10:12:00,
2013-02-12 05:29:00,37.6,30.0,29.68,WNW,298,0.0,2.0,75,0.00,,,0.00,weatherlink.com 1.10,2013-02-12 10:29:00,
2013-02-12 05:44:00,37.7,30.0,29.68,WNW,285,1.0,4.0,73,0.00,,,0.00,weatherlink.com 1.10,2013-02-12 10:44:00,
2013-02-12 06:00:00,37.9,30.0,29.69,West,268,0.0,4.0,72,0.00,,,0.00,weatherlink.com 1.10,2013-02-12 11:00:00,
2013-02-12 06:16:00,37.8,30.0,29.69,NW,326,0.0,1.0,72,0.00,,,0.00,weatherlink.com 1.10,2013-02-12 11:16:00,
2013-02-12 06:32:00,37.8,29.0,29.68,NNW,330,2.0,6.0,70,0.00,,,0.00,weatherlink.com 1.10,2013-02-12 11:32:00,
2013-02-12 07:03:00,38.5,28.0,29.70,West,273,1.0,9.0,66,0.00,,,0.00,weatherlink.com 1.10,2013-02-12 12:03:00,
2013-02-12 07:19:00,38.6,28.0,29.71,WSW,245,1.0,9.0,65,0.00,,,0.00,weatherlink.com 1.10,2013-02-12 12:19:00,
2013-02-12 07:35:00,38.7,28.0,29.72,NW,325,2.0,9.0,65,0.00,,,0.00,weatherlink.com 1.10,2013-02-12 12:35:00,
2013-02-12 07:51:00,38.6,28.0,29.72,NW,311,1.0,12.0,65,0.00,,,0.00,weatherlink.com 1.10,2013-02-12 12:51:00,
2013-02-12 08:07:00,38.5,28.0,29.73,NW,320,11.0,17.0,66,0.00,,,0.00,weatherlink.com 1.10,2013-02-12 13:07:00,
2013-02-12 08:23:00,38.4,28.0,29.73,West,281,7.0,18.0,67,0.00,,,0.00,weatherlink.com 1.10,2013-02-12 13:23:00,
2013-02-12 08:38:00,38.4,28.0,29.74,NW,309,1.0,10.0,67,0.00,,,0.00,weatherlink.com 1.10,2013-02-12 13:38:00,
2013-02-12 08:54:00,38.5,28.0,29.74,North,1,2.0,6.0,67,0.00,,,0.00,weatherlink.com 1.10,2013-02-12 13:54:00,
2013-02-12 09:10:00,38.6,28.0,29.75,East,82,3.0,11.0,66,0.00,,,0.00,weatherlink.com 1.10,2013-02-12 14:10:00,
2013-02-12 09:27:00,38.8,28.0,29.76,West,280,3.0,13.0,66,0.00,,,0.00,weatherlink.com 1.10,2013-02-12 14:27:00,
2013-02-12 09:43:00,38.8,29.0,29.76,West,267,2.0,14.0,67,0.00,,,0.00,weatherlink.com 1.10,2013-02-12 14:43:00,
2013-02-12 09:58:00,38.8,28.0,29.76,West,278,3.0,17.0,66,0.00,,,0.00,weatherlink.com 1.10,2013-02-12 14:58:00,
2013-02-12 10:15:00,38.8,29.0,29.77,NNW,335,11.0,24.0,67,0.00,,,0.00,weatherlink.com 1.10,2013-02-12 15:15:00,
2013-02-12 10:30:00,38.8,29.0,29.78,WNW,284,2.0,13.0,67,0.00,,,0.00,weatherlink.com 1.10,2013-02-12 15:30:00,
2013-02-12 10:46:00,38.7,29.0,29.78,SSW,210,4.0,16.0,67,0.00,,,0.00,weatherlink.com 1.10,2013-02-12 15:46:00,
2013-02-12 11:02:00,38.7,29.0,29.78,NW,316,2.0,12.0,67,0.00,,,0.00,weatherlink.com 1.10,2013-02-12 16:02:00,
2013-02-12 11:18:00,38.7,29.0,29.79,WNW,288,5.0,15.0,67,0.00,,,0.00,weatherlink.com 1.10,2013-02-12 16:18:00,
2013-02-12 11:33:00,38.6,29.0,29.79,NE,44,7.0,17.0,68,0.00,,,0.00,weatherlink.com 1.10,2013-02-12 16:33:00,
2013-02-12 11:50:00,38.8,29.0,29.79,NW,307,6.0,21.0,67,0.00,,,0.00,weatherlink.com 1.10,2013-02-12 16:50:00,
2013-02-12 12:05:00,38.7,29.0,29.79,NW,321,7.0,18.0,67,0.00,,,0.00,weatherlink.com 1.10,2013-02-12 17:05:00,
2013-02-12 12:21:00,38.5,29.0,29.79,West,277,14.0,21.0,68,0.00,,,0.00,weatherlink.com 1.10,2013-02-12 17:21:00,
2013-02-12 12:38:00,38.5,29.0,29.80,WNW,294,5.0,16.0,68,0.00,,,0.00,weatherlink.com 1.10,2013-02-12 17:38:00,
2013-02-12 12:54:00,38.5,29.0,29.80,NNW,345,21.0,21.0,68,0.00,,,0.00,weatherlink.com 1.10,2013-02-12 17:54:00,
2013-02-12 13:09:00,38.4,29.0,29.80,West,270,6.0,19.0,68,0.00,,,0.00,weatherlink.com 1.10,2013-02-12 18:09:00,
2013-02-12 13:29:00,38.3,29.0,29.81,NW,309,8.0,20.0,68,0.00,,,0.00,weatherlink.com 1.10,2013-02-12 18:29:00,
2013-02-12 13:43:00,38.1,29.0,29.81,WNW,295,8.0,17.0,69,0.00,,,0.00,weatherlink.com 1.10,2013-02-12 18:43:00,
2013-02-12 13:58:00,38.1,29.0,29.82,WNW,302,8.0,22.0,69,0.00,,,0.00,weatherlink.com 1.10,2013-02-12 18:58:00,
2013-02-12 14:14:00,38.2,29.0,29.82,NNW,328,2.0,14.0,68,0.00,,,0.00,weatherlink.com 1.10,2013-02-12 19:14:00,
2013-02-12 14:30:00,38.3,28.0,29.82,NNW,330,8.0,17.0,67,0.00,,,0.00,weatherlink.com 1.10,2013-02-12 19:30:00,
2013-02-12 14:46:00,38.2,28.0,29.83,NNW,342,8.0,13.0,67,0.00,,,0.00,weatherlink.com 1.10,2013-02-12 19:46:00,
2013-02-12 15:02:00,38.0,28.0,29.83,North,351,13.0,19.0,67,0.00,,,0.00,weatherlink.com 1.10,2013-02-12 20:02:00,
2013-02-12 15:18:00,37.7,28.0,29.82,WSW,250,8.0,24.0,68,0.00,,,0.00,weatherlink.com 1.10,2013-02-12 20:18:00,
2013-02-12 15:34:00,37.5,28.0,29.82,NNW,334,11.0,17.0,69,0.00,,,0.00,weatherlink.com 1.10,2013-02-12 20:34:00,
2013-02-12 15:49:00,37.4,28.0,29.82,WNW,297,5.0,11.0,69,0.00,,,0.00,weatherlink.com 1.10,2013-02-12 20:49:00,
2013-02-12 16:06:00,37.4,28.0,29.81,NW,324,3.0,9.0,68,0.00,,,0.00,weatherlink.com 1.10,2013-02-12 21:06:00,
2013-02-12 16:22:00,37.5,28.0,29.81,WNW,298,3.0,9.0,67,0.00,,,0.00,weatherlink.com 1.10,2013-02-12 21:22:00,
2013-02-12 16:38:00,37.4,27.0,29.81,NNW,328,2.0,11.0,66,0.00,,,0.00,weatherlink.com 1.10,2013-02-12 21:38:00,
2013-02-12 16:53:00,37.5,26.0,29.80,NW,321,7.0,16.0,64,0.00,,,0.00,weatherlink.com 1.10,2013-02-12 21:53:00,
2013-02-12 17:09:00,37.5,26.0,29.80,West,272,8.0,13.0,64,0.00,,,0.00,weatherlink.com 1.10,2013-02-12 22:09:00,
2013-02-12 17:25:00,37.4,26.0,29.79,NNW,347,6.0,14.0,64,0.00,,,0.00,weatherlink.com 1.10,2013-02-12 22:25:00,
2013-02-12 17:41:00,37.2,27.0,29.80,NNW,338,4.0,8.0,65,0.00,,,0.00,weatherlink.com 1.10,2013-02-12 22:41:00,
2013-02-12 17:57:00,37.1,26.0,29.82,NNW,345,3.0,10.0,65,0.00,,,0.00,weatherlink.com 1.10,2013-02-12 22:57:00,
2013-02-12 18:13:00,37.0,26.0,29.83,NW,305,5.0,10.0,64,0.00,,,0.00,weatherlink.com 1.10,2013-02-12 23:13:00,
2013-02-12 18:29:00,37.1,26.0,29.84,WNW,287,5.0,13.0,63,0.00,,,0.00,weatherlink.com 1.10,2013-02-12 23:29:00,
2013-02-12 18:45:00,37.1,26.0,29.85,NNW,328,4.0,15.0,63,0.00,,,0.00,weatherlink.com 1.10,2013-02-12 23:45:00,
2013-02-12 19:00:00,37.0,26.0,29.87,NNW,328,1.0,10.0,63,0.00,,,0.00,weatherlink.com 1.10,2013-02-13 00:00:00,
2013-02-12 19:16:00,37.0,26.0,29.89,WNW,290,1.0,8.0,63,0.00,,,0.00,weatherlink.com 1.10,2013-02-13 00:16:00,
2013-02-12 19:32:00,37.0,25.0,29.89,WNW,289,1.0,12.0,62,0.00,,,0.00,weatherlink.com 1.10,2013-02-13 00:32:00,
2013-02-12 19:48:00,36.9,25.0,29.90,NW,324,5.0,10.0,62,0.00,,,0.00,weatherlink.com 1.10,2013-02-13 00:48:00,
2013-02-12 20:04:00,36.6,25.0,29.91,WNW,295,4.0,10.0,62,0.00,,,0.00,weatherlink.com 1.10,2013-02-13 01:04:00,
2013-02-12 20:20:00,36.4,25.0,29.91,WNW,287,2.0,10.0,63,0.00,,,0.00,weatherlink.com 1.10,2013-02-13 01:20:00,
2013-02-12 20:36:00,36.0,25.0,29.90,WNW,300,5.0,8.0,64,0.00,,,0.00,weatherlink.com 1.10,2013-02-13 01:36:00,
2013-02-12 20:52:00,35.7,25.0,29.89,NW,326,2.0,9.0,64,0.00,,,0.00,weatherlink.com 1.10,2013-02-13 01:52:00,
2013-02-12 21:08:00,35.5,25.0,29.88,NNW,329,4.0,6.0,64,0.00,,,0.00,weatherlink.com 1.10,2013-02-13 02:08:00,
2013-02-12 21:24:00,35.3,25.0,29.88,East,93,3.0,7.0,65,0.00,,,0.00,weatherlink.com 1.10,2013-02-13 02:24:00,
2013-02-12 21:40:00,35.1,25.0,29.88,NNW,345,8.0,9.0,66,0.00,,,0.00,weatherlink.com 1.10,2013-02-13 02:40:00,
2013-02-12 21:55:00,35.0,25.0,29.87,NW,309,2.0,8.0,66,0.00,,,0.00,weatherlink.com 1.10,2013-02-13 02:55:00,
2013-02-12 22:11:00,34.8,25.0,29.86,NNW,347,4.0,7.0,67,0.00,,,0.00,weatherlink.com 1.10,2013-02-13 03:11:00,
2013-02-12 22:27:00,34.7,25.0,29.87,NW,314,2.0,8.0,67,0.00,,,0.00,weatherlink.com 1.10,2013-02-13 03:27:00,
2013-02-12 22:43:00,34.7,24.0,29.86,NW,325,0.0,9.0,66,0.00,,,0.00,weatherlink.com 1.10,2013-02-13 03:43:00,
2013-02-12 22:59:00,34.5,25.0,29.87,North,352,4.0,5.0,67,0.00,,,0.00,weatherlink.com 1.10,2013-02-13 03:59:00,
2013-02-12 23:14:00,34.5,25.0,29.86,NNW,334,1.0,4.0,67,0.00,,,0.00,weatherlink.com 1.10,2013-02-13 04:14:00,
2013-02-12 23:30:00,34.5,25.0,29.87,NNW,334,3.0,5.0,67,0.00,,,0.00,weatherlink.com 1.10,2013-02-13 04:30:00,
2013-02-12 23:46:00,34.5,24.0,29.87,NW,309,2.0,6.0,66,0.00,,,0.00,weatherlink.com 1.10,2013-02-13 04:46:00,